DateTimeUTC,F1_A11,F1_S11,BsB_S11,BsG_S11,BsR_S11,BbsB_S11,BbsG_S11,BbsR_S11,BaB_A11,BaG_A11,BaR_A11,T_S11,U_S11,P_S11,T1_A11
2020-02-14T00:00:00Z,00000380,21000600,,,,,,,,,,23.6,00.0,0619.7,30.9
2020-02-14T00:01:00Z,00000380,21000600,,,,,,,,,,23.6,00.0,0619.7,30.9
2020-02-14T00:02:00Z,00000380,21000600,,,,,,,,,,23.7,00.0,0619.7,30.9
2020-02-14T00:03:00Z,00000380,61000600,,,,,,,,,,23.7,00.0,0619.7,30.9
2020-02-14T00:04:00Z,00000380,41000600,-000.39,0000.30,0000.37,0000.19,0000.20,0000.22,-000.12,-000.15,-000.08,23.4,00.0,0620.6,30.9
2020-02-14T00:05:00Z,00000380,01000600,0000.15,0000.38,-000.32,0000.38,0000.08,0000.01,0000.06,-000.22,-000.06,23.4,00.0,0620.7,30.9
2020-02-14T00:06:00Z,00000380,01000600,-000.80,0000.84,0000.63,0000.50,0000.09,0000.66,0000.16,0000.07,0000.09,23.4,00.0,0620.7,30.9
2020-02-14T00:07:00Z,00000380,01000600,0001.67,0000.93,0000.40,0000.21,0000.03,0000.09,0000.01,0000.30,0000.17,23.4,00.0,0620.7,30.9
2020-02-14T00:08:00Z,00000380,01000600,0001.01,0000.25,0000.14,0000.94,0000.28,0000.31,-000.13,0000.06,-000.03,23.4,00.0,0620.7,30.9
2020-02-14T00:09:00Z,00000380,01000600,0001.25,0000.45,0000.65,-000.26,0000.09,0000.43,-000.09,-000.25,-000.00,23.4,00.0,0620.7,30.9
2020-02-14T00:10:00Z,00000380,01000600,0000.67,0000.07,0000.21,0000.88,0000.39,0000.22,0000.27,0000.31,-000.12,23.4,00.0,0620.7,30.9
2020-02-14T00:11:00Z,00000380,01000600,0000.33,0000.80,0000.21,0000.50,0000.39,0000.08,-000.01,-000.06,0000.26,23.5,00.0,0620.8,30.9
2020-02-14T00:12:00Z,00000380,01000600,0001.02,0000.37,0000.14,0000.94,-000.14,0000.45,0000.07,0000.15,0000.00,23.5,00.0,0620.8,31.0
2020-02-14T00:13:00Z,00000380,01000600,0000.06,0000.45,0000.33,0000.56,0000.29,0000.05,0000.09,0000.05,-000.02,23.4,00.0,0620.8,31.0
2020-02-14T00:14:00Z,00000380,01000600,0000.08,0000.23,0000.12,0000.76,0000.08,0000.03,0000.00,0000.07,-000.03,23.4,00.0,0620.8,31.0
2020-02-14T00:15:00Z,00000380,01000600,-000.11,0000.14,0000.35,0000.78,0000.36,0000.57,-000.11,-000.07,-000.07,23.4,00.0,0620.8,31.0
2020-02-14T00:16:00Z,00000380,01000600,0000.48,0000.28,0000.71,0000.75,0000.11,0000.53,0000.23,0000.14,0000.06,23.4,00.0,0620.7,31.0
2020-02-14T00:17:00Z,00000380,01000600,-000.81,0000.44,0000.24,0000.92,0000.03,0000.30,0000.05,-000.14,0000.09,23.5,00.0,0620.8,31.0
2020-02-14T00:18:00Z,00000380,01000600,0000.88,0000.18,0000.23,0000.64,-000.18,0000.55,-000.09,0000.05,0000.02,23.5,00.0,0620.7,31.0
2020-02-14T00:19:00Z,00000380,01000600,-000.37,0000.87,-000.35,0000.10,0000.46,0000.05,0000.04,0000.05,0000.03,23.4,00.0,0620.7,31.0
2020-02-14T00:20:00Z,00000380,01000600,0000.18,0000.35,0000.53,0001.22,0000.47,0000.38,-000.05,-000.16,-000.02,23.4,00.0,0620.7,30.9
2020-02-14T00:21:00Z,00000380,01000600,0000.23,0000.44,0000.44,0000.75,0000.15,0000.10,0000.18,0000.24,0000.00,23.4,00.0,0620.7,30.9
2020-02-14T00:22:00Z,00000380,01000600,-000.23,0000.60,0000.71,0001.01,0000.18,0000.14,0000.15,0000.12,0000.11,23.5,00.0,0620.7,31.0
2020-02-14T00:23:00Z,00000380,01000600,0000.83,0000.33,0000.23,0000.20,-000.09,0000.16,-000.01,-000.09,0000.01,23.5,00.0,0620.7,31.0
2020-02-14T00:24:00Z,00000380,01000600,0000.68,-000.07,-000.35,0000.82,0000.23,0000.57,0000.06,0000.30,0000.21,23.5,00.0,0620.7,30.9
2020-02-14T00:25:00Z,00000380,01000600,-000.00,0000.05,0000.02,0000.15,0000.14,0000.02,0000.11,0000.06,-000.07,23.5,00.0,0620.7,30.9
2020-02-14T00:26:00Z,00000380,01000600,0000.58,0000.95,0000.33,0000.67,0000.31,0000.27,0000.04,-000.01,0000.02,23.5,00.0,0620.6,31.0
2020-02-14T00:27:00Z,00000380,01000600,0000.72,0000.06,0000.50,0000.87,0000.06,0000.26,0000.04,0000.01,-000.03,23.5,00.0,0620.6,31.0
2020-02-14T00:28:00Z,00000380,01000600,0000.28,0000.41,-000.27,0000.23,0000.20,0000.34,0000.02,0000.09,0000.10,23.5,00.0,0620.6,31.0
2020-02-14T00:29:00Z,00000380,01000600,-000.19,-000.26,0000.54,0000.41,-000.01,0000.24,0000.08,0000.01,0000.10,23.5,00.0,0620.6,31.0
2020-02-14T00:30:00Z,00000380,01000600,0000.36,0000.19,0000.66,0000.44,0000.08,0000.36,0000.05,-000.05,-000.08,23.5,00.0,0620.6,31.0
2020-02-14T00:31:00Z,00000380,01000600,0000.53,0000.69,0000.79,0000.94,0000.04,0000.11,0000.07,0000.04,0000.04,23.5,00.0,0620.6,31.0
2020-02-14T00:32:00Z,00000380,01000600,0000.61,0000.29,0000.12,0001.03,-000.36,0000.14,-000.08,0000.11,0000.09,23.5,00.0,0620.6,31.0
2020-02-14T00:33:00Z,00000380,01000600,-000.66,0000.12,-000.48,0001.05,0000.25,-000.11,0000.15,-000.03,0000.05,23.5,00.0,0620.5,31.0
2020-02-14T00:34:00Z,00000380,01000600,-000.79,0000.45,0000.13,0000.45,0000.02,-000.17,-000.08,0000.04,-000.14,23.5,00.0,0620.5,31.0
2020-02-14T00:35:00Z,00000380,01000600,0001.30,0000.55,0000.40,0001.22,0000.24,-000.05,0000.06,-000.16,0000.11,23.5,00.0,0620.5,30.9
2020-02-14T00:36:00Z,00000380,01000600,0000.58,0000.34,0000.37,0001.03,0000.07,0000.05,0000.28,0000.32,0000.05,23.5,00.0,0620.5,30.9
2020-02-14T00:37:00Z,00000380,01000600,-000.71,0000.38,0000.27,-000.49,0000.04,0000.22,0000.04,0000.05,0000.02,23.5,00.0,0620.5,30.9
2020-02-14T00:38:00Z,00000380,01000600,-000.04,0000.66,0000.15,0000.30,0000.34,0000.29,-000.24,-000.24,0000.07,23.5,00.0,0620.5,30.9
2020-02-14T00:39:00Z,00000380,01000600,-000.91,0000.00,0000.53,0000.21,-000.09,0000.64,0000.18,0000.29,0000.11,23.5,00.0,0620.5,30.9
2020-02-14T00:40:00Z,00000380,01000600,-000.29,0000.40,0000.01,0000.47,-000.07,-000.15,0000.07,0000.05,-000.04,23.5,00.0,0620.6,31.0
2020-02-14T00:41:00Z,00000380,01000600,0000.48,0000.43,0000.21,0001.01,0000.29,0000.11,0000.02,0000.04,0000.02,23.5,00.0,0620.5,31.0
2020-02-14T00:42:00Z,00000380,01000600,0000.79,0001.10,-000.14,0000.57,0000.38,0000.44,-000.03,-000.08,0000.13,23.5,00.0,0620.6,31.0
2020-02-14T00:43:00Z,00000380,01000600,0000.84,0000.39,0000.06,-000.26,-000.15,0000.20,0000.16,0000.26,-000.00,23.5,00.0,0620.5,30.9
2020-02-14T00:44:00Z,00000380,01000600,-000.93,0000.79,0000.01,0000.91,-000.26,0000.34,-000.08,-000.10,-000.08,23.5,00.0,0620.6,31.0
2020-02-14T00:45:00Z,00000380,01000600,-000.22,0000.34,0000.13,0000.59,-000.12,0000.22,0000.17,0000.09,0000.17,23.5,00.0,0620.5,31.0
2020-02-14T00:46:00Z,00000380,01000600,0001.01,0000.07,0000.53,0000.26,0000.49,0000.56,0000.06,-000.06,-000.14,23.5,00.0,0620.5,31.0
2020-02-14T00:47:00Z,00000380,01000600,-000.88,0000.29,0000.35,-000.02,-000.07,0000.68,0000.02,0000.16,0000.12,23.5,00.0,0620.5,31.0
2020-02-14T00:48:00Z,00000380,01000600,0001.70,0000.54,-000.12,0001.16,-000.01,0000.30,0000.05,-000.09,0000.04,23.5,00.0,0620.5,30.9
2020-02-14T00:49:00Z,00000380,01000600,0001.31,0000.38,0000.47,0000.04,-000.17,0000.17,-000.15,-000.09,-000.04,23.5,00.0,0620.5,31.0
2020-02-14T00:50:00Z,00000380,01000600,0000.42,0000.34,-000.07,0000.56,-000.25,0000.63,0000.03,-000.20,-000.06,23.4,00.0,0620.6,30.9
2020-02-14T00:51:00Z,00000380,01000600,0000.16,0000.65,0000.38,0000.64,-000.06,0000.47,0000.20,0000.28,0000.11,23.4,00.0,0620.5,30.9
2020-02-14T00:52:00Z,00000380,01000600,-001.05,0000.34,0000.22,0000.19,0000.01,0000.42,0000.11,0000.07,0000.19,23.5,00.0,0620.5,30.9
2020-02-14T00:53:00Z,00000380,01000600,0000.74,0000.27,0000.11,0001.35,0000.12,0000.58,-000.13,-000.03,-000.03,23.5,00.0,0620.5,30.9
2020-02-14T00:54:00Z,00000380,01000600,0001.87,0000.66,0000.21,0000.07,0000.25,0000.04,0000.06,0000.06,-000.16,23.5,00.0,0620.5,30.9
2020-02-14T00:55:00Z,00000380,01000600,0001.45,0000.19,-000.11,0000.03,-000.17,-000.12,0000.09,0000.16,0000.19,23.5,00.0,0620.5,30.9
2020-02-14T00:56:00Z,00000380,01000600,0000.76,0000.58,-000.09,0000.08,0000.34,0000.14,0000.02,0000.11,-000.01,23.5,00.0,0620.6,31.0
2020-02-14T00:57:00Z,00000380,41000600,,,,,,,,,,23.5,00.0,0620.5,31.0
2020-02-14T00:58:00Z,00000380,61000600,,,,,,,,,,23.6,00.0,0619.6,31.0
2020-02-14T00:59:00Z,00000380,21000600,,,,,,,,,,23.7,00.0,0619.6,31.0
2020-02-14T01:00:00Z,00000380,21000600,,,,,,,,,,23.7,00.0,0619.5,31.0
2020-02-14T01:01:00Z,00000380,21000600,,,,,,,,,,23.8,00.0,0619.5,31.0
2020-02-14T01:02:00Z,00000380,21000600,,,,,,,,,,23.8,00.0,0619.5,31.0
2020-02-14T01:03:00Z,00000380,61000600,,,,,,,,,,23.8,00.0,0619.5,31.0
2020-02-14T01:04:00Z,00000380,41000600,0000.69,-000.09,0000.09,-000.02,0000.14,0000.26,-000.15,-000.04,-000.06,23.6,00.0,0620.4,30.9
2020-02-14T01:05:00Z,00000380,01000600,0000.03,0000.04,-000.13,0000.36,-000.08,0000.02,0000.14,-000.09,0000.07,23.5,00.0,0620.5,30.9
2020-02-14T01:06:00Z,00000380,01000600,-000.25,0000.53,0000.63,0000.27,0000.17,-000.32,0000.05,0000.06,0000.05,23.5,00.0,0620.4,30.9
2020-02-14T01:07:00Z,00000380,01000600,0000.70,0000.11,0000.01,-000.30,0000.18,0000.23,0000.08,0000.07,-000.00,23.5,00.0,0620.5,30.9
2020-02-14T01:08:00Z,00000380,01000600,0000.93,-000.04,0000.04,0000.03,0000.40,-000.03,-000.08,0000.13,0000.15,23.5,00.0,0620.5,30.9
2020-02-14T01:09:00Z,00000380,01000600,-000.44,0000.36,0000.03,-000.01,0000.34,0000.21,0000.12,0000.07,-000.14,23.5,00.0,0620.5,30.9
2020-02-14T01:10:00Z,00000380,01000600,-000.35,0000.52,0000.08,0000.94,0000.59,-000.16,0000.07,0000.01,0000.09,23.5,00.0,0620.5,31.0
2020-02-14T01:11:00Z,00000380,01000600,-000.20,0001.37,0000.12,0000.74,0000.53,0000.09,-000.14,-000.01,-000.09,23.5,00.0,0620.5,31.0
2020-02-14T01:12:00Z,00000380,01000600,0000.01,0000.09,-000.05,0001.21,0000.73,0000.01,-000.04,0000.10,0000.27,23.6,00.0,0620.5,31.0
2020-02-14T01:13:00Z,00000380,01000600,0001.35,0000.31,-000.26,0000.65,0000.14,0000.23,0000.21,0000.10,-000.01,23.6,00.0,0620.5,31.0
2020-02-14T01:14:00Z,00000380,01000600,0000.89,0000.63,-000.15,0000.12,0000.42,0000.27,-000.21,-000.25,-000.06,23.5,00.0,0620.5,31.0
2020-02-14T01:15:00Z,00000380,01000600,-000.55,0000.41,0000.29,0000.37,0000.40,0000.14,0000.07,0000.07,-000.00,23.5,00.0,0620.4,31.0
2020-02-14T01:16:00Z,00000380,01000600,0000.68,-000.10,-000.07,0000.32,-000.03,0000.19,-000.00,0000.01,-000.03,23.5,00.0,0620.4,31.0
2020-02-14T01:17:00Z,00000380,01000600,-001.33,0001.28,0000.37,0000.08,0000.44,0000.24,-000.01,-000.03,0000.00,23.5,00.0,0620.4,31.0
2020-02-14T01:18:00Z,00000380,01000600,-000.42,0000.60,0000.67,0000.50,0000.22,0000.35,0000.05,0000.15,-000.00,23.5,00.0,0620.4,30.9
2020-02-14T01:19:00Z,00000380,01000600,0001.18,-000.07,0000.05,0000.10,0000.29,0000.33,0000.09,-000.07,-000.10,23.5,00.0,0620.4,30.9
2020-02-14T01:20:00Z,00000380,01000600,-000.02,0000.68,0000.42,0000.32,0000.34,-000.08,-000.03,-000.29,0000.15,23.5,00.0,0620.4,30.9
2020-02-14T01:21:00Z,00000380,01000600,0000.46,0000.31,0000.46,0000.57,0000.08,0000.06,0000.08,0000.27,0000.03,23.5,00.0,0620.4,30.9
2020-02-14T01:22:00Z,00000380,01000600,0000.10,0000.09,0000.40,0000.20,0000.00,0000.30,0000.15,0000.02,-000.11,23.5,00.0,0620.4,30.9
2020-02-14T01:23:00Z,00000380,01000600,0000.97,0000.38,0000.10,0000.32,0000.22,-000.03,-000.25,-000.21,-000.04,23.6,00.0,0620.4,31.0
2020-02-14T01:24:00Z,00000380,01000600,-001.17,0001.00,-000.02,0000.68,-000.04,-000.43,0000.17,0000.21,0000.22,23.6,00.0,0620.4,30.9
2020-02-14T01:25:00Z,00000380,01000600,0000.23,0001.42,-000.15,0000.42,0000.10,-000.10,0000.14,0000.12,0000.07,23.6,00.0,0620.5,30.9
2020-02-14T01:26:00Z,00000380,01000600,0000.60,-000.58,0000.10,-000.08,0000.31,0000.28,-000.05,0000.00,0000.05,23.5,00.0,0620.5,31.0
2020-02-14T01:27:00Z,00000380,01000600,0000.95,-000.19,-000.12,0000.12,0000.14,0000.20,0000.15,0000.19,-000.16,23.5,00.0,0620.5,31.0
2020-02-14T01:28:00Z,00000380,01000600,0000.23,0000.09,0000.34,0000.29,0000.38,0000.32,0000.02,-000.03,0000.14,23.6,00.0,0620.5,31.0
2020-02-14T01:29:00Z,00000380,01000600,0001.26,0000.47,0000.01,0000.27,-000.23,-000.23,0000.04,0000.11,0000.06,23.6,00.0,0620.5,31.0
2020-02-14T01:30:00Z,00000380,01000600,0001.11,0000.19,-000.04,0001.08,0000.26,0000.09,-000.08,-000.01,0000.07,23.5,00.0,0620.4,30.9
2020-02-14T01:31:00Z,00000380,01000600,0001.64,0000.52,0000.14,-000.67,0000.44,0000.21,0000.05,0000.14,-000.05,23.5,00.0,0620.4,30.9
2020-02-14T01:32:00Z,00000380,01000600,-001.37,0000.23,0000.53,-000.03,-000.09,0000.51,0000.17,-000.10,-000.04,23.5,00.0,0620.5,30.9
2020-02-14T01:33:00Z,00000380,01000600,-000.35,-000.17,0000.32,0000.09,0000.25,0000.04,-000.09,0000.04,0000.08,23.5,00.0,0620.4,30.9
2020-02-14T01:34:00Z,00000380,01000600,-000.07,0000.33,0000.72,0000.82,0000.56,0000.62,0000.05,-000.21,-000.12,23.5,00.0,0620.4,30.9
2020-02-14T01:35:00Z,00000380,01000600,-000.00,0000.41,0000.03,0000.77,0000.09,0000.35,-000.15,-000.15,-000.01,23.5,00.0,0620.4,30.9
2020-02-14T01:36:00Z,00000380,01000600,-000.14,-000.27,-000.16,0000.21,0000.12,0000.22,0000.12,0000.34,0000.18,23.5,00.0,0620.4,30.9
2020-02-14T01:37:00Z,00000380,01000600,-000.42,0000.72,0000.16,0000.16,-000.29,0000.30,0000.10,0000.14,0000.04,23.5,00.0,0620.4,30.9
2020-02-14T01:38:00Z,00000380,01000600,0001.31,0000.51,-000.19,0000.92,0000.04,0000.54,-000.13,-000.35,-000.04,23.5,00.0,0620.4,30.9
2020-02-14T01:39:00Z,00000380,01000600,0000.15,0000.37,0000.50,0000.37,0000.04,0000.58,0000.17,0000.26,0000.14,23.5,00.0,0620.4,30.9
2020-02-14T01:40:00Z,00000380,01000600,0000.44,0000.38,-000.10,0000.86,0000.34,0000.26,0000.09,0000.36,-000.02,23.5,00.0,0620.4,30.9
2020-02-14T01:41:00Z,00000380,01000600,-000.48,0000.16,-000.51,0000.49,-000.04,0000.00,-000.08,-000.21,0000.15,23.5,00.0,0620.3,31.0
2020-02-14T01:42:00Z,00000380,01000600,0000.88,0000.92,-000.22,0001.37,0000.40,0000.04,0000.09,-000.06,-000.19,23.5,00.0,0620.4,30.9
2020-02-14T01:43:00Z,00000380,01000600,-000.24,0000.45,-000.28,0000.62,0000.25,-000.27,0000.03,0000.17,0000.19,23.5,00.0,0620.3,30.9
2020-02-14T01:44:00Z,00000380,01000600,-000.51,0000.28,-000.17,0000.48,0000.05,0000.30,0000.01,0000.15,-000.02,23.5,00.0,0620.3,31.0
2020-02-14T01:45:00Z,00000380,01000600,-000.27,0000.16,0000.19,0000.98,0000.47,0000.04,0000.13,-000.24,0000.03,23.5,00.0,0620.3,30.9
2020-02-14T01:46:00Z,00000380,01000600,-000.12,-000.15,0000.34,0000.33,0000.58,0000.16,0000.03,0000.26,-000.05,23.5,00.0,0620.3,30.9
2020-02-14T01:47:00Z,00000380,01000600,0001.09,0000.93,0000.52,0000.63,0000.24,0000.11,-000.11,-000.11,0000.26,23.5,00.0,0620.3,30.9
2020-02-14T01:48:00Z,00000380,01000600,0000.11,0000.32,0000.29,0000.03,0000.41,0000.18,-000.01,-000.05,-000.13,23.5,00.0,0620.3,30.9
2020-02-14T01:49:00Z,00000380,01000600,0000.05,-000.02,0000.93,-000.05,0000.01,0000.19,0000.13,-000.10,0000.12,23.5,00.0,0620.3,30.9
2020-02-14T01:50:00Z,00000380,01000600,0000.90,0001.16,0000.06,0000.72,0000.26,0000.44,-000.12,-000.06,-000.17,23.5,00.0,0620.3,30.9
2020-02-14T01:51:00Z,00000380,01000600,0000.12,0000.96,-000.19,-000.40,0000.12,-000.03,0000.17,0000.03,0000.06,23.5,00.0,0620.3,30.9
2020-02-14T01:52:00Z,00000380,01000600,-000.79,0001.00,0000.32,0000.39,-000.02,-000.11,0000.08,0000.24,0000.10,23.5,00.0,0620.3,30.9
2020-02-14T01:53:00Z,00000380,01000600,-000.37,0000.51,-000.03,0000.06,-000.08,-000.09,0000.08,0000.08,0000.03,23.5,00.0,0620.3,30.9
2020-02-14T01:54:00Z,00000380,01000600,-000.21,0000.44,0000.49,0000.71,-000.23,0000.43,-000.10,-000.37,-000.15,23.5,00.0,0620.3,30.9
2020-02-14T01:55:00Z,00000380,01000600,0000.74,0000.26,0000.16,0000.36,0000.59,0000.14,0000.28,0000.50,0000.06,23.5,00.0,0620.3,30.9
2020-02-14T01:56:00Z,00000380,01000600,-000.15,0000.30,-000.07,0000.45,0000.20,0000.31,-000.02,0000.03,0000.21,23.5,00.0,0620.3,30.9
2020-02-14T01:57:00Z,00000380,41000600,,,,,,,,,,23.6,00.0,0620.2,30.9
2020-02-14T01:58:00Z,00000380,61000600,,,,,,,,,,23.7,00.0,0619.4,31.0
2020-02-14T01:59:00Z,00000380,21000600,,,,,,,,,,23.8,00.0,0619.3,31.0
2020-02-14T02:00:00Z,00000380,21000600,,,,,,,,,,23.8,00.0,0619.3,31.0
2020-02-14T02:01:00Z,00000380,21000600,,,,,,,,,,23.8,00.0,0619.3,30.9
2020-02-14T02:02:00Z,00000380,21000600,,,,,,,,,,23.8,00.0,0619.3,31.0
2020-02-14T02:03:00Z,00000380,61000600,,,,,,,,,,23.8,00.0,0619.3,30.9
2020-02-14T02:04:00Z,00000380,41000600,0000.59,0000.07,0000.79,0000.86,0000.07,-000.02,-000.05,-000.14,-000.01,23.6,00.0,0620.1,30.9
2020-02-14T02:05:00Z,00000380,01000600,0000.41,0000.58,-000.04,0000.15,-000.04,-000.17,-000.05,-000.18,-000.07,23.6,00.0,0620.2,30.9
2020-02-14T02:06:00Z,00000380,01000600,0000.85,0000.46,0000.27,0001.54,0000.15,-000.12,0000.20,0000.27,0000.15,23.5,00.0,0620.2,30.9
2020-02-14T02:07:00Z,00000380,01000600,0000.68,0000.33,0000.32,0000.36,0000.01,0000.06,0000.05,0000.23,0000.07,23.5,00.0,0620.2,30.9
2020-02-14T02:08:00Z,00000380,01000600,0001.02,0000.08,0000.22,0000.60,0000.04,-000.35,0000.10,0000.05,-000.03,23.5,00.0,0620.2,30.9
2020-02-14T02:09:00Z,00000380,01000600,0000.38,0000.17,0000.06,0000.21,-000.19,-000.22,-000.10,-000.25,-000.11,23.6,00.0,0620.3,30.9
2020-02-14T02:10:00Z,00000380,01000600,-000.37,0000.90,0000.44,0000.40,-000.02,0000.10,0000.04,0000.34,0000.16,23.6,00.0,0620.2,30.9
2020-02-14T02:11:00Z,00000380,01000600,-000.49,0000.25,0000.19,0000.78,-000.05,0000.25,0000.20,0000.00,0000.00,23.6,00.0,0620.2,30.9
2020-02-14T02:12:00Z,00000380,01000600,0001.08,0000.78,0000.36,0001.13,-000.03,0000.16,0000.06,0000.03,0000.09,23.5,00.0,0620.2,30.9
2020-02-14T02:13:00Z,00000380,01000600,0000.24,0000.68,0000.80,0000.68,0000.16,0000.35,0000.03,0000.14,-000.04,23.5,00.0,0620.2,30.9
2020-02-14T02:14:00Z,00000380,01000600,-000.31,0000.01,0000.42,-000.02,0000.33,-000.09,0000.10,-000.00,0000.12,23.5,00.0,0620.2,30.9
2020-02-14T02:15:00Z,00000380,01000600,0001.57,-000.06,-000.08,0001.01,0000.28,-000.07,-000.01,-000.05,-000.12,23.5,00.0,0620.1,30.9
2020-02-14T02:16:00Z,00000380,01000600,-000.35,-000.01,0000.23,-000.28,-000.31,-000.25,-000.04,0000.12,0000.10,23.5,00.0,0620.1,30.9
2020-02-14T02:17:00Z,00000380,01000600,0000.72,0000.26,0000.40,0000.57,-000.05,0000.22,-000.07,-000.02,0000.00,23.5,00.0,0620.1,30.9
2020-02-14T02:18:00Z,00000380,01000600,0000.57,-000.12,0000.63,0000.55,-000.01,0000.25,0000.36,-000.07,-000.09,23.5,00.0,0620.1,30.9
2020-02-14T02:19:00Z,00000380,01000600,0000.72,-000.15,0000.13,0000.40,0000.46,0000.32,-000.07,0000.19,0000.21,23.5,00.0,0620.1,30.9
2020-02-14T02:20:00Z,00000380,01000600,0000.34,0000.32,0000.60,0000.43,0000.02,0000.23,-000.06,-000.07,0000.00,23.5,00.0,0620.1,30.9
2020-02-14T02:21:00Z,00000380,01000600,0001.19,0000.43,0000.03,0000.46,0000.08,0000.18,0000.22,0000.03,0000.03,23.5,00.0,0620.1,30.9
2020-02-14T02:22:00Z,00000380,01000600,-000.16,0000.64,0000.79,0000.53,-000.03,0000.18,0000.12,0000.05,0000.15,23.5,00.0,0620.1,30.9
2020-02-14T02:23:00Z,00000380,01000600,-000.20,0000.52,0000.24,0001.09,-000.12,0000.00,-000.02,0000.18,0000.01,23.5,00.0,0620.1,30.9
2020-02-14T02:24:00Z,00000380,01000600,0001.55,0000.51,0000.57,0001.03,-000.13,0000.10,0000.05,-000.10,0000.04,23.5,00.0,0620.1,30.9
2020-02-14T02:25:00Z,00000380,01000600,0000.47,0000.24,0000.71,0000.78,-000.23,-000.11,0000.20,0000.23,0000.15,23.5,00.0,0620.1,30.9
2020-02-14T02:26:00Z,00000380,01000600,-000.28,-000.03,0000.67,0000.88,0000.38,0000.09,-000.07,0000.12,0000.02,23.5,00.0,0620.1,30.9
2020-02-14T02:27:00Z,00000380,01000600,0001.64,0000.26,0000.68,0000.35,0000.36,0000.05,0000.14,0000.20,0000.08,23.5,00.0,0620.1,30.9
2020-02-14T02:28:00Z,00000380,01000600,0000.22,0000.14,0000.55,0000.53,0000.07,0000.27,0000.17,0000.14,-000.05,23.5,00.0,0620.1,30.9
2020-02-14T02:29:00Z,00000380,01000600,0000.95,-000.03,-000.17,0000.95,-000.04,-000.01,-000.02,-000.12,0000.07,23.5,00.0,0620.1,30.9
2020-02-14T02:30:00Z,00000380,01000600,-000.41,-000.37,-000.14,0000.31,-000.08,-000.18,0000.09,0000.05,-000.05,23.5,00.0,0620.1,30.9
2020-02-14T02:31:00Z,00000380,01000600,0001.70,-000.05,0000.48,0000.06,0000.06,0000.05,-000.24,-000.05,0000.01,23.5,00.0,0620.1,30.9
2020-02-14T02:32:00Z,00000380,01000600,-000.11,0000.32,0000.03,0000.70,-000.23,-000.02,0000.02,-000.10,-000.06,23.5,00.0,0620.1,30.9
2020-02-14T02:33:00Z,00000380,01000600,-000.02,-000.05,0000.17,0000.80,-000.09,0000.05,-000.01,-000.01,-000.03,23.5,00.0,0620.0,30.9
2020-02-14T02:34:00Z,00000380,01000600,0000.30,0000.15,0000.22,0000.88,0000.54,-000.22,0000.05,0000.02,0000.10,23.5,00.0,0620.1,30.9
2020-02-14T02:35:00Z,00000380,01000600,0000.85,0000.28,0000.19,0000.71,-000.14,-000.08,-000.06,-000.21,-000.01,23.5,00.0,0620.1,30.9
2020-02-14T02:36:00Z,00000380,01000600,0000.08,0000.54,0000.45,0001.22,0000.11,-000.04,0000.16,-000.05,0000.08,23.4,00.0,0620.0,30.9
2020-02-14T02:37:00Z,00000380,01000600,0001.21,0000.47,0000.41,0001.17,-000.37,0000.21,0000.10,0000.38,0000.10,23.5,00.0,0620.0,30.9
2020-02-14T02:38:00Z,00000380,01000600,-000.12,0000.03,0000.35,0000.09,0000.20,-000.31,-000.05,0000.02,-000.07,23.5,00.0,0620.1,30.9
2020-02-14T02:39:00Z,00000380,01000600,0000.31,0000.01,0000.63,0000.28,-000.04,0000.21,-000.01,0000.05,0000.02,23.5,00.0,0620.1,30.9
2020-02-14T02:40:00Z,00000380,01000600,0000.65,0000.34,-000.45,0000.15,0000.15,-000.01,0000.08,0000.02,-000.04,23.5,00.0,0620.1,30.9
2020-02-14T02:41:00Z,00000380,01000600,0001.02,0000.76,0000.39,-000.28,-000.13,-000.41,0000.08,0000.06,0000.10,23.5,00.0,0620.1,30.9
2020-02-14T02:42:00Z,00000380,01000600,0000.59,0000.56,0000.05,0000.91,-000.30,-000.18,-000.07,0000.03,0000.02,23.5,00.0,0620.1,31.0
2020-02-14T02:43:00Z,00000380,01000600,0000.91,0000.13,0000.83,0000.01,-000.13,0000.24,0000.02,-000.10,-000.06,23.5,00.0,0620.1,31.0
2020-02-14T02:44:00Z,00000380,01000600,0001.93,0000.41,-000.22,0000.75,-000.01,0000.06,0000.03,0000.21,0000.00,23.5,00.0,0620.1,30.9
2020-02-14T02:45:00Z,00000380,01000600,0000.96,0000.24,0000.15,0000.49,0000.23,0000.17,0000.12,-000.03,-000.05,23.5,00.0,0620.1,31.0
2020-02-14T02:46:00Z,00000380,01000600,0000.20,-000.02,-000.02,0000.68,-000.18,-000.04,-000.17,0000.05,0000.20,23.5,00.0,0620.1,31.0
2020-02-14T02:47:00Z,00000380,01000600,0000.66,0000.45,-000.11,0000.21,0000.24,-000.24,0000.17,-000.00,0000.06,23.5,00.0,0620.1,31.0
2020-02-14T02:48:00Z,00000380,01000600,0000.67,0000.40,0000.43,0000.51,0000.12,-000.08,0000.09,-000.04,-000.02,23.5,00.0,0620.1,31.0
2020-02-14T02:49:00Z,00000380,01000600,0001.26,0000.15,0000.50,0000.48,-000.06,0000.61,0000.03,0000.04,0000.11,23.5,00.0,0620.1,31.0
2020-02-14T02:50:00Z,00000380,01000600,0000.72,0000.26,0000.49,0000.27,0000.28,0000.03,-000.18,-000.13,-000.17,23.5,00.0,0620.1,30.9
2020-02-14T02:51:00Z,00000380,01000600,0000.16,0000.34,0000.57,0000.70,-000.06,0000.16,0000.02,0000.12,0000.02,23.5,00.0,0620.1,30.9
2020-02-14T02:52:00Z,00000380,01000600,0000.39,0000.40,-000.01,0000.71,0000.01,-000.36,0000.03,0000.03,0000.13,23.5,00.0,0620.1,30.9
2020-02-14T02:53:00Z,00000380,01000600,0000.51,0000.39,-000.17,0000.28,-000.11,-000.33,-000.18,-000.08,-000.21,23.6,00.0,0620.1,31.0
2020-02-14T02:54:00Z,00000380,01000600,0000.58,0000.11,0000.39,0000.41,0000.22,0000.26,0000.08,0000.11,0000.16,23.5,00.0,0620.1,31.0
2020-02-14T02:55:00Z,00000380,01000600,-000.26,-000.37,-000.00,0000.35,-000.17,0000.04,0000.08,0000.12,0000.11,23.5,00.0,0620.1,31.0
2020-02-14T02:56:00Z,00000380,01000600,0000.38,-000.02,0000.15,0000.71,0000.13,0000.15,0000.14,0000.07,-000.06,23.6,00.0,0620.2,31.0
2020-02-14T02:57:00Z,00000380,41000600,,,,,,,,,,23.6,00.0,0620.3,31.0
2020-02-14T02:58:00Z,00000380,61000600,,,,,,,,,,23.7,00.0,0619.2,31.0
2020-02-14T02:59:00Z,00000380,21000600,,,,,,,,,,23.8,00.0,0619.2,31.0
2020-02-14T03:00:00Z,00000380,21000600,,,,,,,,,,23.8,00.0,0619.2,31.0
2020-02-14T03:01:00Z,00000380,21000600,,,,,,,,,,23.8,00.0,0619.2,31.0
2020-02-14T03:02:00Z,00000380,21000600,,,,,,,,,,23.8,00.0,0619.2,30.9
2020-02-14T03:03:00Z,00000380,61000600,,,,,,,,,,23.8,00.0,0619.2,31.0
2020-02-14T03:04:00Z,00000380,41000600,0000.28,0000.04,0000.29,0000.39,-000.35,0000.12,0000.03,-000.08,0000.04,23.7,00.0,0620.0,31.0
2020-02-14T03:05:00Z,00000380,01000600,-001.17,0000.75,0000.02,0000.22,0000.02,0000.07,-000.00,-000.26,-000.13,23.6,00.0,0620.0,31.0
2020-02-14T03:06:00Z,00000380,01000600,0001.62,0000.51,-000.17,-000.14,0000.26,0000.38,0000.25,0000.16,0000.29,23.6,00.0,0619.9,30.9
2020-02-14T03:07:00Z,00000380,01000600,0000.45,0000.14,0000.22,0000.92,-000.06,0000.44,0000.01,0000.43,-000.01,23.6,00.0,0619.9,30.9
2020-02-14T03:08:00Z,00000380,01000600,0000.24,0000.32,0000.00,-000.25,0000.26,-000.08,-000.12,-000.32,-000.08,23.7,00.0,0619.9,30.9
2020-02-14T03:09:00Z,00000380,01000600,-000.61,0000.25,0000.05,0000.35,-000.35,0000.19,0000.02,0000.33,0000.08,23.6,00.0,0619.9,30.9
2020-02-14T03:10:00Z,00000380,01000600,0002.13,0000.46,0000.17,0000.30,-000.13,0000.09,0000.17,0000.05,0000.09,23.7,00.0,0619.9,31.0